TimePDT,TemperatureF,Dew PointF,Humidity,Sea Level PressureIn,VisibilityMPH,Wind Direction,Wind SpeedMPH,Gust SpeedMPH,PrecipitationIn,Events,Conditions,WindDirDegrees,DateUTC
12:56 AM,36.0,30.0,79,30.12,10.0,ENE,3.5,-,N/A,,Clear,70,2012-10-29 07:56:00
1:56 AM,37.0,30.0,76,30.12,10.0,East,4.6,-,N/A,,Clear,80,2012-10-29 08:56:00
2:56 AM,34.0,28.9,82,30.13,10.0,South,3.5,-,N/A,,Clear,170,2012-10-29 09:56:00
3:56 AM,35.1,28.9,78,30.12,10.0,Calm,Calm,-,N/A,,Clear,0,2012-10-29 10:56:00
5:56 AM,35.1,28.9,78,30.15,10.0,Calm,Calm,-,N/A,,Clear,0,2012-10-29 12:56:00
6:56 AM,30.9,27.0,85,30.20,10.0,Calm,Calm,-,N/A,,Clear,0,2012-10-29 13:56:00
7:56 AM,34.0,30.0,85,30.24,10.0,Calm,Calm,-,N/A,,Clear,0,2012-10-29 14:56:00
9:56 AM,48.9,33.1,54,30.23,10.0,Calm,Calm,-,N/A,,Clear,0,2012-10-29 16:56:00
10:56 AM,55.9,34.0,44,30.22,10.0,SSW,3.5,-,N/A,,Clear,200,2012-10-29 17:56:00
11:56 AM,63.0,33.1,33,30.19,10.0,SW,4.6,-,N/A,,Clear,220,2012-10-29 18:56:00
12:56 PM,68.0,30.0,24,30.14,10.0,SW,12.7,-,N/A,,Clear,230,2012-10-29 19:56:00
1:56 PM,70.0,26.1,19,30.11,10.0,WSW,10.4,19.6,N/A,,Clear,240,2012-10-29 20:56:00
2:56 PM,70.0,24.1,18,30.11,10.0,WSW,12.7,16.1,N/A,,Clear,250,2012-10-29 21:56:00
3:56 PM,70.0,24.1,18,30.10,10.0,West,11.5,-,N/A,,Clear,270,2012-10-29 22:56:00
5:56 PM,59.0,26.1,28,30.14,10.0,Calm,Calm,-,N/A,,Clear,0,2012-10-30 00:56:00
6:56 PM,53.1,26.1,35,30.18,10.0,NNW,3.5,-,N/A,,Clear,340,2012-10-30 01:56:00
7:56 PM,50.0,27.0,41,30.19,10.0,Calm,Calm,-,N/A,,Clear,0,2012-10-30 02:56:00
8:56 PM,43.0,27.0,53,30.20,10.0,Calm,Calm,-,N/A,,Clear,0,2012-10-30 03:56:00
9:56 PM,41.0,26.1,55,30.20,10.0,Calm,Calm,-,N/A,,Clear,0,2012-10-30 04:56:00
10:56 PM,41.0,25.0,53,30.18,10.0,NE,5.8,-,N/A,,Clear,50,2012-10-30 05:56:00
11:56 PM,37.9,24.1,57,30.17,10.0,ENE,3.5,-,N/A,,Clear,70,2012-10-30 06:56:00